Temp
-5 -6 -5 -5 -6 -5 -5 -6 -6 -5 -5 -5 -5 -4 -5 -5 -5 -5 -5 -5 -5 -5 -5 -5 -5 -5 -5 -5 -5 -5 -5 -5 -5 -6 -5 -5 -5 -5 -6 -5 -5 -5 -6 -6 -6 -6 -6 -6 -6
-6 -5 -5 -5 -5 -5 -5 -5 -5 -5 -5 -5 -5 -5 -5 -6 -5 -6 -5 -6 -6 -5 -6 -5 -5 -5 -6 -6 -6 -6 -5 -6 -5 -5 -5 -5 -5 -5 -5 -5 -5 -6 -6 -6 -6 -5 -6 -6 -6
-6 -6 -6 -6 -5 -6 -6 -6 -6 -6 -5 -5 -5 -5 -5 -5 -6 -6 -6 -6 -5 -5 -6 -6 -6 -6 -6 -6 -5 -5 -5 -6 -6 -5 -5 -5 -5 -5 -5 -5 -5 -6 -6 -6 -6 -6 -6 -6 -6
-7 -6 -6 -6 -6 -6 -6 -6 -6 -6 -6 -6 -5 -5 -5 -6 -6 -6 -6 -6 -6 -5 -6 -5 -6 -6 -6 -6 -5 -5 -5 -5 -5 -5 -5 -5 -4 -5 -5 -5 -6 -6 -6 -6 -6 -6 -6 -6 -6
-7 -7 -6 -6 -6 -7 -6 -6 -6 -7 -7 -6 -6 -6 -6 -5 -5 -6 -6 -6 -6 -5 -6 -5 -5 -6 -6 -6 -5 -5 -5 -5 -5 -5 -5 -4 -4 -5 -5 -5 -5 -6 -6 -6 -6 -6 -6 -6 -6
-7 -7 -7 -6 -6 -6 -6 -6 -6 -7 -7 -7 -7 -7 -6 -6 -6 -6 -6 -6 -6 -6 -6 -7 -6 -6 -6 -6 -5 -5 -5 -5 -5 -5 -5 -4 -5 -5 -5 -6 -6 -5 -5 -6 -6 -6 -6 -7 -6
-7 -6 -6 -6 -6 -6 -6 -7 -7 -7 -8 -8 -8 -8 -7 -6 -7 -7 -6 -6 -6 -6 -6 -8 -6 -6 -6 -6 -6 -5 -5 -5 -5 -5 -4 -5 -5 -5 -5 -6 -6 -6 -6 -5 -5 -6 -6 -6 -6
-7 -6 -6 -6 -6 -7 -7 -7 -7 -8 -8 -8 -8 -8 -8 -7 -7 -7 -6 -6 -6 -7 -6 -9 -7 -6 -6 -6 -6 -6 -5 -5 -5 -5 -5 -5 -5 -5 -5 -5 -6 -6 -6 -6 -6 -5 -6 -6 -6
-6 -6 -6 -6 -6 -7 -7 -7 -8 -8 -9 -8 -9 -9 -8 -8 -7 -7 -7 -7 -7 -7 -7 -8 -7 -7 -6 -6 -6 -6 -5 -5 -5 -5 -5 -5 -5 -5 -5 -5 -6 -6 -6 -6 -6 -6 -6 -6 -6
-6 -5 -6 -6 -6 -7 -7 -7 -7 -8 -8 -8 -9 -8 -8 -8 -8 -7 -8 -7 -7 -8 -8 -8 -7 -7 -6 -6 -6 -6 -6 -6 -5 -5 -5 -5 -5 -6 -6 -6 -5 -5 -5 -6 -6 -6 -6 -6 -6
-5 -6 -6 -6 -6 -7 -7 -7 -7 -8 -8 -8 -9 -9 -7 -8 -8 -7 -8 -7 -8 -8 -9 -8 -7 -7 -6 -6 -6 -6 -6 -6 -5 -5 -5 -5 -5 -6 -6 -6 -6 -6 -5 -5 -5 -6 -6 -6 -6
-5 -6 -6 -6 -6 -7 -6 -7 -7 -8 -8 -8 -9 -9 -7 -8 -8 -8 -8 -8 -8 -8 -8 -8 -7 -6 -6 -6 -6 -6 -5 -5 -5 -5 -6 -6 -6 -6 -6 -6 -6 -5 -5 -5 -6 -6 -6 -5 -6
-5 -6 -6 -6 -6 -7 -7 -7 -8 -8 -8 -8 -9 -9 -8 -8 -8 -8 -9 -8 -8 -8 -8 -7 -7 -6 -6 -6 -6 -6 -5 -6 -5 -5 -6 -5 -6 -6 -6 -6 -6 -6 -5 -5 -5 -6 -6 -6 -6
-6 -6 -7 -6 -6 -6 -6 -6 -7 -7 -7 -8 -8 -9 -9 -8 -8 -8 -9 -8 -8 -7 -7 -7 -7 -7 -6 -5 -5 -6 -6 -6 -5 -5 -6 -6 -6 -6 -6 -6 -6 -6 -5 -5 -6 -6 -6 -6 -6
-6 -6 -7 -6 -6 -6 -6 -7 -7 -7 -7 -7 -8 -9 -8 -9 -8 -8 -8 -8 -8 -7 -7 -7 -7 -6 -5 -5 -5 -6 -6 -6 -5 -5 -5 -6 -6 -6 -6 -6 -6 -5 -5 -5 -5 -5 -6 -6 -6
-7 -6 -7 -7 -6 -6 -6 -6 -7 -7 -7 -7 -7 -8 -8 -8 -8 -8 -8 -7 -7 -7 -7 -6 -6 -6 -5 -5 -5 -5 -5 -6 -5 -5 -6 -6 -6 -6 -7 -6 -6 -5 -5 -5 -5 -6 -6 -6 -6
-8 -8 -8 -7 -7 -7 -6 -6 -6 -7 -7 -7 -7 -7 -8 -8 -7 -7 -7 -7 -7 -7 -6 -6 -6 -5 -5 -5 -5 -5 -5 -6 -5 -5 -5 -6 -6 -6 -7 -6 -6 -6 -6 -5 -6 -6 -6 -6 -6
-8 -9 -8 -7 -7 -7 -6 -6 -6 -6 -7 -6 -7 -6 -7 -7 -8 -7 -7 -7 -6 -6 -7 -6 -6 -6 -5 -5 -5 -6 -6 -6 -5 -5 -6 -6 -6 -6 -7 -6 -6 -6 -6 -6 -6 -6 -6 -6 -6
-7 -7 -8 -8 -7 -7 -7 -7 -6 -6 -6 -6 -6 -6 -6 -7 -6 -7 -7 -7 -6 -6 -6 -6 -6 -6 -5 -5 -5 -6 -5 -5 -5 -5 -6 -6 -6 -7 -7 -6 -6 -6 -6 -6 -6 -6 -6 -6 -6
-7 -7 -7 -7 -7 -7 -7 -7 -7 -6 -6 -6 -6 -5 -5 -6 -6 -6 -6 -6 -6 -6 -6 -6 -6 -5 -5 -5 -5 -5 -5 -5 -5 -6 -6 -6 -6 -7 -7 -6 -6 -6 -6 -6 -6 -6 -6 -6 -6
-7 -7 -7 -7 -6 -7 -7 -7 -7 -7 -6 -6 -6 -6 -6 -5 -5 -6 -6 -6 -6 -6 -6 -6 -6 -6 -5 -5 -5 -5 -5 -5 -5 -6 -6 -6 -6 -6 -6 -6 -6 -6 -6 -6 -6 -6 -7 -7 -7
-7 -7 -6 -6 -6 -6 -6 -6 -7 -7 -7 -7 -7 -6 -6 -6 -6 -6 -6 -6 -6 -6 -6 -6 -6 -5 -5 -5 -5 -6 -6 -5 -6 -6 -6 -6 -6 -6 -6 -6 -6 -6 -7 -7 -6 -7 -7 -7 -7
-6 -6 -6 -6 -6 -5 -5 -6 -7 -7 -7 -7 -7 -7 -6 -6 -6 -6 -6 -6 -5 -5 -6 -6 -6 -5 -5 -5 -5 -6 -6 -5 -5 -6 -6 -5 -6 -6 -6 -6 -6 -6 -7 -7 -7 -7 -7 -7 -7
-6 -6 -6 -6 -6 -6 -6 -5 -6 -6 -6 -7 -7 -7 -7 -5 -5 -5 -5 -6 -6 -6 -6 -5 -5 -5 -5 -6 -6 -6 -6 -6 -5 -5 -6 -5 -6 -6 -6 -6 -6 -6 -6 -7 -7 -7 -6 -7 -7
-7 -6 -6 -6 -6 -6 -6 -6 -6 -6 -6 -6 -7 -7 -7 -7 -5 -5 -5 -5 -5 -6 -5 -5 -5 -5 -5 -6 -6 -6 -6 -5 -5 -5 -6 -6 -5 -6 -6 -6 -6 -6 -6 -7 -7 -6 -6 -7 -7
-7 -7 -6 -6 -7 -6 -7 -6 -6 -7 -7 -7 -7 -8 -8 -8 -7 -6 -5 -5 -5 -6 -6 -5 -5 -5 -5 -5 -5 -5 -5 -5 -5 -5 -6 -6 -6 -6 -6 -6 -6 -6 -6 -6 -6 -6 -7 -7 -7
-7 -7 -7 -7 -7 -7 -7 -6 -6 -6 -6 -6 -6 -7 -8 -8 -7 -6 -5 -5 -6 -6 -6 -6 -5 -5 -5 -5 -5 -5 -5 -5 -5 -5 -6 -6 -6 -6 -6 -6 -6 -6 -6 -6 -7 -7 -7 -7 -7
-7 -7 -7 -7 -7 -7 -7 -6 -6 -6 -6 -7 -6 -8 -8 -7 -6 -6 -6 -6 -6 -6 -6 -5 -6 -5 -5 -5 -6 -5 -5 -5 -5 -6 -6 -6 -6 -6 -7 -7 -6 -6 -6 -7 -6 -6 -6 -7 -7
-7 -7 -7 -7 -7 -7 -7 -6 -6 -6 -6 -7 -6 -7 -8 -8 -7 -6 -6 -6 -6 -6 -6 -6 -6 -6 -6 -5 -6 -6 -6 -6 -6 -6 -6 -6 -6 -6 -7 -7 -6 -6 -6 -6 -6 -6 -6 -7 -7
-8 -7 -7 -7 -7 -7 -7 -7 -6 -6 -7 -7 -7 -7 -7 -6 -6 -6 -6 -6 -6 -6 -6 -7 -7 -6 -6 -6 -6 -6 -6 -6 -6 -6 -6 -6 -6 -6 -7 -7 -6 -6 -6 -6 -6 -6 -6 -6 -7
Height
5904 5905 5905 5905 5908 5906 5905 5906 5906 5906 5906 5906 5906 5906 5907 5908 5909 5912 5911 5914 5916 5917 5919 5921 5922 5925 5927 5930 5931 5934 5935 5936 5935 5936 5936 5936 5937 5936 5935 5935 5934 5934 5933 5932 5930 5928 5927 5925 5924
5907 5907 5907 5906 5907 5906 5906 5906 5905 5905 5905 5905 5905 5905 5907 5907 5908 5910 5911 5913 5915 5916 5919 5922 5925 5927 5929 5931 5933 5935 5936 5938 5938 5939 5938 5939 5939 5938 5938 5936 5936 5936 5935 5934 5932 5931 5929 5928 5927
5908 5908 5909 5909 5908 5907 5906 5906 5905 5905 5905 5905 5905 5905 5905 5907 5908 5910 5911 5912 5916 5918 5920 5924 5927 5928 5931 5932 5934 5937 5937 5939 5940 5941 5940 5940 5941 5940 5939 5938 5938 5937 5936 5935 5934 5932 5932 5930 5929
5910 5910 5912 5911 5908 5907 5907 5906 5905 5904 5904 5904 5903 5904 5904 5905 5907 5910 5911 5914 5916 5918 5920 5925 5928 5930 5931 5933 5935 5938 5938 5940 5942 5942 5942 5941 5941 5941 5940 5939 5939 5938 5937 5937 5936 5934 5934 5933 5932
5912 5911 5911 5910 5908 5906 5906 5905 5904 5903 5903 5903 5902 5901 5902 5903 5906 5909 5911 5913 5915 5916 5920 5926 5929 5932 5932 5933 5936 5939 5940 5941 5943 5943 5943 5942 5941 5942 5942 5941 5939 5938 5938 5938 5937 5936 5936 5934 5933
5912 5912 5911 5910 5908 5907 5906 5904 5902 5902 5901 5900 5899 5899 5899 5901 5904 5908 5910 5912 5916 5917 5919 5924 5929 5932 5932 5934 5937 5940 5941 5943 5944 5944 5944 5943 5942 5943 5942 5942 5941 5939 5939 5938 5938 5937 5937 5936 5935
5912 5912 5911 5911 5911 5908 5906 5905 5904 5902 5900 5899 5898 5897 5899 5899 5902 5906 5910 5913 5915 5916 5917 5920 5929 5933 5933 5936 5939 5942 5942 5944 5944 5944 5944 5944 5943 5943 5942 5942 5942 5941 5939 5939 5938 5938 5937 5937 5936
5913 5912 5912 5912 5911 5910 5907 5907 5905 5902 5901 5899 5898 5896 5898 5898 5902 5905 5908 5911 5914 5917 5918 5924 5929 5933 5934 5937 5940 5943 5944 5945 5945 5944 5944 5943 5943 5943 5942 5941 5941 5941 5939 5939 5939 5938 5937 5937 5936
5913 5914 5913 5913 5912 5910 5909 5908 5905 5903 5901 5898 5897 5896 5895 5896 5899 5903 5908 5912 5915 5918 5920 5926 5931 5933 5935 5938 5942 5944 5945 5946 5945 5944 5945 5944 5944 5943 5941 5940 5939 5938 5937 5937 5937 5937 5937 5937 5936
5916 5917 5915 5914 5914 5912 5911 5908 5906 5904 5900 5899 5897 5896 5893 5896 5900 5904 5908 5912 5916 5919 5921 5927 5932 5933 5936 5939 5943 5945 5946 5946 5945 5945 5945 5945 5944 5944 5941 5939 5937 5935 5934 5929 5933 5936 5938 5938 5937
5918 5918 5917 5917 5916 5915 5912 5909 5907 5905 5903 5900 5899 5896 5894 5899 5900 5905 5910 5912 5916 5921 5924 5929 5932 5934 5938 5942 5943 5946 5946 5946 5947 5946 5946 5946 5945 5944 5942 5939 5938 5935 5935 5934 5933 5936 5937 5938 5937
5919 5919 5919 5919 5918 5917 5916 5911 5910 5909 5906 5904 5904 5901 5899 5901 5906 5908 5911 5915 5919 5923 5925 5929 5933 5935 5941 5942 5945 5947 5946 5947 5948 5948 5948 5947 5947 5945 5943 5941 5938 5934 5933 5935 5934 5936 5938 5938 5938
5920 5920 5921 5921 5920 5918 5918 5916 5913 5911 5909 5909 5908 5907 5905 5906 5908 5911 5916 5919 5922 5927 5931 5934 5936 5939 5943 5944 5946 5947 5947 5948 5949 5949 5949 5948 5948 5945 5944 5942 5939 5936 5935 5934 5936 5938 5939 5939 5939
5921 5922 5922 5921 5921 5921 5920 5919 5918 5913 5912 5914 5913 5913 5911 5911 5913 5917 5921 5924 5927 5930 5933 5935 5938 5940 5943 5944 5946 5947 5948 5949 5950 5950 5950 5949 5948 5946 5944 5944 5941 5939 5937 5937 5938 5939 5940 5940 5940
5921 5923 5925 5923 5923 5923 5922 5921 5919 5916 5916 5917 5919 5919 5919 5918 5920 5923 5926 5928 5930 5932 5935 5937 5939 5941 5944 5945 5946 5947 5949 5950 5950 5950 5950 5949 5947 5946 5945 5945 5945 5943 5941 5939 5940 5940 5941 5941 5941
5919 5918 5919 5923 5925 5925 5925 5923 5921 5917 5919 5920 5920 5922 5922 5925 5926 5927 5928 5931 5934 5936 5939 5940 5941 5943 5944 5946 5946 5947 5949 5950 5950 5950 5950 5949 5947 5946 5947 5946 5947 5946 5944 5942 5942 5943 5944 5943 5943
5923 5919 5921 5926 5928 5927 5927 5925 5923 5919 5920 5922 5924 5925 5926 5926 5929 5932 5932 5933 5936 5938 5940 5943 5945 5946 5947 5947 5948 5949 5950 5950 5951 5951 5951 5950 5948 5947 5947 5948 5949 5948 5947 5945 5944 5945 5946 5946 5945
5929 5926 5926 5927 5929 5928 5928 5928 5926 5923 5923 5923 5926 5928 5929 5930 5931 5932 5935 5937 5938 5940 5941 5943 5946 5948 5949 5949 5949 5950 5950 5950 5951 5951 5951 5950 5948 5948 5948 5949 5950 5949 5949 5947 5946 5947 5947 5947 5946
5932 5931 5930 5928 5929 5929 5929 5929 5927 5926 5926 5927 5927 5928 5930 5932 5934 5935 5936 5938 5940 5941 5943 5944 5946 5947 5949 5949 5950 5950 5951 5952 5951 5951 5950 5949 5949 5948 5950 5951 5951 5950 5949 5949 5949 5949 5949 5948 5947
5933 5933 5933 5932 5930 5931 5931 5931 5928 5928 5929 5928 5928 5928 5929 5932 5934 5937 5937 5939 5942 5943 5944 5946 5946 5947 5948 5949 5950 5950 5952 5952 5950 5950 5950 5949 5949 5949 5950 5950 5951 5951 5950 5950 5950 5951 5950 5949 5948
5935 5936 5935 5935 5933 5933 5932 5931 5930 5930 5930 5930 5929 5929 5929 5930 5933 5936 5939 5941 5942 5944 5945 5946 5946 5946 5946 5948 5949 5950 5952 5951 5950 5949 5950 5950 5950 5950 5950 5950 5951 5951 5951 5951 5951 5951 5950 5950 5949
5937 5937 5937 5936 5934 5933 5933 5935 5933 5932 5931 5931 5930 5930 5930 5930 5932 5934 5936 5940 5942 5944 5945 5946 5947 5946 5946 5946 5948 5950 5952 5952 5951 5950 5950 5950 5950 5951 5950 5951 5952 5952 5951 5950 5950 5949 5949 5949 5949
5939 5939 5938 5937 5937 5936 5936 5936 5934 5932 5931 5930 5929 5928 5927 5929 5930 5933 5935 5938 5942 5945 5946 5947 5947 5947 5947 5946 5947 5950 5952 5952 5952 5951 5950 5950 5950 5950 5951 5951 5951 5952 5951 5951 5950 5949 5948 5948 5947
5939 5940 5939 5938 5939 5939 5938 5936 5935 5932 5929 5928 5926 5924 5924 5926 5928 5932 5936 5938 5941 5944 5947 5949 5949 5949 5949 5948 5947 5948 5950 5951 5950 5950 5949 5948 5949 5949 5950 5950 5951 5952 5951 5951 5950 5948 5947 5947 5947
5939 5940 5940 5940 5939 5939 5938 5937 5934 5931 5928 5927 5923 5921 5921 5923 5927 5931 5934 5937 5939 5942 5946 5948 5949 5949 5949 5948 5948 5948 5949 5949 5949 5949 5948 5947 5947 5948 5949 5948 5949 5950 5950 5950 5949 5949 5948 5949 5950
5937 5940 5941 5940 5940 5940 5939 5938 5935 5929 5926 5922 5915 5915 5916 5918 5922 5926 5930 5933 5937 5940 5944 5946 5948 5949 5948 5948 5948 5948 5947 5948 5948 5947 5947 5947 5947 5947 5948 5948 5948 5948 5948 5949 5948 5948 5949 5950 5950
5935 5938 5940 5940 5940 5940 5940 5939 5936 5930 5925 5922 5918 5914 5915 5918 5922 5927 5931 5933 5936 5938 5940 5943 5945 5946 5946 5946 5946 5947 5947 5947 5946 5946 5945 5944 5945 5945 5945 5945 5946 5946 5946 5947 5947 5948 5949 5949 5949
5932 5935 5937 5938 5940 5940 5939 5939 5937 5932 5927 5922 5916 5910 5915 5921 5926 5928 5931 5933 5934 5936 5938 5941 5942 5943 5944 5944 5943 5944 5944 5943 5942 5942 5942 5941 5941 5942 5943 5944 5944 5944 5944 5945 5946 5945 5945 5945 5946
5930 5932 5934 5937 5939 5939 5939 5940 5937 5934 5930 5927 5924 5921 5922 5925 5927 5929 5931 5933 5934 5935 5936 5938 5938 5939 5940 5941 5941 5941 5940 5939 5938 5938 5938 5939 5938 5938 5939 5941 5941 5941 5941 5941 5941 5941 5941 5941 5942
5928 5930 5932 5935 5938 5938 5938 5939 5938 5936 5934 5931 5931 5929 5929 5930 5931 5931 5932 5932 5933 5934 5934 5934 5935 5935 5936 5937 5937 5937 5938 5938 5937 5936 5936 5937 5936 5936 5937 5937 5936 5936 5936 5936 5937 5936 5937 5937 5937
Wind_Speed
11 11 10 7 6 5 4 5 7 7 7 6 3 1 3 6 9 9 15 16 14 16 14 11 9 11 14 13 13 13 13 13 15 15 17 17 16 15 15 15 15 16 16 15 16 16 15 15 15
10 6 5 8 7 5 5 4 4 6 7 9 7 4 2 4 10 10 13 21 21 13 14 11 8 12 15 14 13 13 14 12 15 15 18 15 15 15 13 14 13 14 15 14 16 17 15 15 15
12 10 10 9 10 10 10 7 4 3 4 7 9 9 8 6 11 10 11 19 14 15 15 13 11 12 13 14 13 13 15 12 14 16 16 15 13 13 12 13 12 13 15 16 15 16 15 14 15
11 9 9 10 10 10 8 11 5 3 2 1 6 10 11 10 12 12 19 18 13 11 18 16 15 15 15 13 12 12 14 12 14 14 13 15 12 10 11 12 11 10 11 13 14 12 12 13 14
11 12 10 10 10 9 9 9 8 7 5 2 4 8 13 15 14 18 17 11 16 13 18 17 17 16 15 15 13 13 12 12 12 12 13 12 11 10 11 11 9 8 9 10 12 13 12 9 10
10 9 7 10 11 12 11 10 10 8 7 6 2 5 11 17 16 16 13 10 8 9 17 22 18 18 17 16 16 14 13 11 11 12 10 10 10 10 10 9 7 6 7 8 9 9 9 10 10
8 9 9 9 8 10 12 12 8 7 7 6 3 4 10 16 19 18 16 12 16 16 11 25 21 18 18 17 17 15 13 11 12 11 9 9 10 8 9 9 7 5 5 5 6 6 7 8 9
5 6 9 7 9 8 10 8 8 9 6 2 3 3 6 17 19 20 19 15 12 5 11 21 20 21 20 18 17 15 13 11 11 10 8 9 8 7 9 8 5 4 1 3 4 6 6 9 9
6 7 6 4 7 10 7 9 10 13 9 9 6 5 3 15 18 19 19 16 12 14 20 26 22 22 21 19 16 16 13 11 10 8 7 7 8 8 8 8 8 3 4 3 3 2 9 6 6
6 8 6 6 8 7 8 10 13 17 14 12 9 3 6 13 18 19 18 12 6 20 29 28 22 23 21 18 17 14 12 9 9 7 7 7 7 9 11 10 9 8 7 5 4 3 6 8 5
5 9 5 5 6 6 9 14 15 15 13 16 14 12 10 15 18 18 12 12 24 32 33 26 24 23 20 18 16 12 10 7 6 6 7 6 6 8 13 14 7 4 2 7 9 4 5 6 5
3 5 4 3 5 7 9 13 13 16 13 16 16 19 17 14 17 15 19 26 26 27 28 24 22 20 17 16 13 12 9 6 4 6 7 6 7 8 12 15 8 9 9 8 7 3 4 4 4
1 6 7 5 6 7 8 11 13 16 16 14 15 20 18 18 24 29 31 30 29 25 25 23 21 18 16 15 12 10 7 5 4 5 5 7 6 8 10 13 14 13 7 7 8 5 4 5 6
1 6 8 7 6 7 9 11 13 18 17 13 14 16 20 20 24 32 30 26 24 21 19 19 18 16 15 14 13 10 7 5 4 4 5 6 6 8 10 12 15 14 11 9 7 6 7 5 6
6 9 9 10 6 7 9 10 10 18 15 14 11 11 14 17 31 32 28 26 24 21 17 17 16 15 13 13 11 9 6 6 4 3 3 7 7 9 11 10 11 11 12 13 13 11 9 7 6
19 3 13 11 9 6 6 11 11 17 14 9 9 9 11 17 29 26 21 19 19 17 13 13 15 14 13 12 10 8 9 6 4 3 1 5 7 8 9 8 8 8 11 13 13 11 10 9 7
26 24 17 17 10 6 5 8 8 16 15 10 4 6 4 14 17 22 20 14 16 14 13 10 11 11 11 10 10 8 6 5 2 1 1 4 7 7 6 4 5 6 7 8 8 9 7 6 3
24 24 27 23 23 17 11 8 6 9 11 11 7 4 4 4 13 22 21 17 13 12 12 9 8 8 11 11 9 6 5 3 1 0 3 4 4 6 4 2 2 2 3 4 7 5 5 3 3
19 19 22 21 20 17 16 17 5 6 6 6 6 6 5 6 5 12 10 8 12 11 9 10 10 10 10 8 7 6 4 1 1 1 4 3 2 3 2 2 1 1 2 1 4 4 2 2 5
16 17 16 15 17 15 13 16 18 7 6 6 5 5 3 4 5 3 5 6 10 12 10 10 10 8 6 6 6 5 2 1 2 1 2 2 1 2 1 1 1 2 2 2 1 1 1 3 3
10 11 14 14 13 12 12 13 15 18 14 10 6 3 2 3 2 5 5 7 7 7 7 7 8 7 6 5 4 3 2 3 4 1 1 2 2 2 1 0 1 3 5 5 3 2 1 3 2
6 9 15 16 17 17 16 12 9 9 8 7 6 4 4 6 6 5 5 6 8 8 8 10 10 8 7 7 6 4 3 4 5 3 3 4 4 3 3 0 2 4 4 4 5 4 2 3 3
5 6 16 15 14 14 14 12 8 6 5 5 7 8 11 11 10 9 8 8 9 9 10 12 12 9 7 8 7 6 5 4 4 4 5 5 5 6 4 1 1 2 4 3 5 5 4 6 6
7 6 9 12 12 13 13 16 15 11 5 7 12 15 14 17 14 12 10 8 10 13 12 12 13 13 11 9 9 9 8 7 6 5 6 6 7 8 5 1 3 3 4 4 6 6 6 7 7
3 8 5 7 8 10 11 16 16 16 14 14 11 16 19 19 17 14 13 10 10 14 14 14 13 14 13 11 10 10 9 8 7 6 7 10 8 10 9 6 5 3 3 4 6 5 5 6 5
12 8 7 2 5 8 9 15 17 12 12 19 18 10 19 17 19 16 15 13 11 12 13 15 15 15 13 12 12 11 10 9 7 6 8 10 9 12 12 9 7 4 4 5 4 5 3 3 5
17 13 14 7 3 5 8 13 18 13 12 17 19 1 14 16 15 10 11 10 9 10 13 14 15 14 14 13 13 13 11 10 9 8 9 11 13 14 14 15 13 10 8 7 5 4 4 5 6
19 18 17 12 5 6 9 13 13 15 11 13 22 9 11 11 5 4 5 7 9 10 9 9 12 11 13 14 14 14 13 13 13 12 12 13 15 17 17 16 16 15 14 11 9 7 4 6 6
15 18 21 16 6 7 8 10 8 15 9 11 21 20 18 13 8 5 5 5 6 8 8 9 11 10 11 14 14 16 17 16 18 17 17 17 17 18 19 18 18 20 19 17 13 11 10 9 10
7 16 18 15 8 6 10 9 7 12 7 13 7 12 14 11 5 6 6 6 9 9 10 10 10 10 11 12 14 16 19 20 21 23 20 19 18 19 20 21 21 23 23 22 20 17 16 17 15
Wind_Direction
85 80 66 65 71 41 80 127 162 171 160 160 167 192 132 155 118 176 172 169 177 157 151 140 139 133 132 127 116 107 104 100 86 87 81 76 73 69 69 63 64 65 62 60 67 64 66 67 63
86 74 62 70 73 84 85 108 172 187 180 182 180 197 220 230 163 184 199 196 202 158 151 134 139 135 135 130 125 119 112 105 91 92 86 78 78 73 64 64 58 63 63 60 61 62 64 70 65
71 59 74 79 75 72 69 61 66 137 174 185 186 190 205 189 164 130 154 147 181 183 169 150 148 140 141 135 133 124 117 106 95 93 91 83 69 69 65 65 56 59 62 63 65 65 62 68 71
61 83 96 77 72 65 54 33 49 56 76 158 196 200 204 202 154 156 183 165 170 206 168 159 148 148 142 138 137 130 123 111 98 94 90 86 73 61 60 56 57 50 60 62 67 63 71 67 67
82 102 76 47 54 59 45 34 27 5 350 293 164 199 209 203 179 178 182 192 200 200 170 161 155 147 137 129 129 122 121 107 98 93 87 86 80 64 58 57 57 48 51 54 62 61 59 55 75
78 97 83 57 52 44 30 24 17 357 347 340 273 182 208 205 191 167 194 181 201 185 198 163 153 141 130 123 121 111 107 102 96 90 86 81 70 56 52 56 55 45 53 56 58 68 59 55 60
97 103 79 52 36 29 24 15 15 7 16 354 326 208 215 212 187 183 184 211 224 187 218 148 146 140 129 121 112 109 108 106 97 89 76 67 60 51 46 47 48 44 40 55 63 62 45 71 55
130 107 85 63 42 29 28 17 27 41 20 334 319 166 189 214 191 188 181 189 183 213 179 135 138 136 124 119 114 114 111 104 93 86 80 69 57 39 30 27 32 12 318 67 59 51 64 62 57
169 126 100 83 61 44 34 43 50 57 47 21 30 121 161 172 172 178 170 166 149 149 165 137 136 127 122 120 119 120 115 101 95 85 73 52 45 40 18 10 346 316 240 142 55 51 91 93 35
157 123 97 75 55 58 58 49 48 50 38 40 42 66 184 180 163 178 165 174 157 150 136 129 127 123 120 123 129 126 120 101 92 89 65 53 44 38 19 1 357 341 344 283 236 224 70 63 54
149 143 133 83 67 52 55 50 47 43 44 53 48 47 164 135 138 148 172 155 150 138 133 133 128 123 125 134 133 140 133 102 97 96 72 53 40 54 32 22 37 5 37 289 336 52 110 58 40
152 155 140 69 80 52 38 52 56 53 56 80 55 59 122 129 127 127 135 139 141 134 135 123 126 126 137 134 143 143 130 110 123 100 84 54 42 43 33 35 39 355 24 342 131 127 98 44 40
161 169 162 143 97 72 47 46 60 57 61 92 73 64 141 137 128 122 121 117 114 121 128 133 132 135 135 139 141 137 130 144 121 98 84 56 44 35 31 40 46 51 70 108 111 120 57 79 54
84 158 155 161 111 80 64 63 56 59 61 90 84 71 95 131 136 127 118 114 117 118 124 127 134 139 148 146 150 146 144 150 132 114 76 57 52 45 40 50 49 53 83 94 103 96 104 122 95
288 222 169 150 127 96 87 86 79 75 68 77 64 86 79 109 129 116 113 115 120 121 128 135 144 143 147 154 158 145 144 164 143 84 38 71 64 54 51 58 49 58 82 95 96 100 117 117 98
57 25 186 150 119 114 100 101 97 91 86 91 83 71 69 90 116 110 112 116 115 124 137 150 152 153 153 162 155 153 173 165 155 102 76 78 72 72 70 44 69 77 93 99 101 104 111 103 105
73 77 125 102 87 99 102 95 96 95 92 81 78 85 91 118 124 120 118 119 129 142 145 164 162 161 171 169 169 179 164 159 134 85 107 65 89 86 86 69 78 80 94 102 100 107 94 106 70
83 83 105 95 78 77 72 60 68 83 92 97 86 86 111 104 132 134 122 127 147 159 158 164 174 187 189 187 175 180 171 158 164 129 65 56 97 93 94 80 72 104 112 114 115 118 107 77 77
81 88 103 98 77 71 62 52 53 66 71 75 83 89 103 132 139 180 187 183 170 173 165 167 178 195 195 188 174 172 155 156 335 80 59 59 102 113 112 86 276 279 123 126 114 115 81 68 116
83 95 93 89 82 68 65 56 53 71 67 55 30 33 43 119 147 180 228 227 184 175 172 179 183 195 199 195 172 149 186 263 317 62 58 63 128 151 139 85 282 302 334 336 49 102 148 126 147
82 84 79 83 92 93 74 59 63 64 46 33 33 21 345 313 171 164 204 225 217 197 184 198 194 197 196 190 186 165 218 298 290 334 304 166 209 181 194 30 348 352 357 355 356 359 171 158 143
114 93 76 75 81 86 85 68 57 65 49 30 11 314 299 263 260 217 211 234 230 219 208 212 213 203 191 190 193 199 244 286 293 294 259 226 222 211 190 196 326 344 357 5 349 332 260 224 234
146 95 82 81 80 89 80 73 49 27 360 325 294 300 261 254 246 245 220 229 250 251 230 223 226 222 204 200 206 211 228 255 261 249 241 245 223 213 211 223 300 323 316 328 331 309 241 248 255
157 164 102 87 71 74 58 47 28 7 328 283 262 266 241 234 233 241 241 229 255 261 252 241 236 236 224 224 219 219 228 232 243 245 237 242 232 212 226 248 280 316 334 312 321 308 249 245 255
194 189 134 91 59 45 31 20 14 2 2 353 294 246 240 222 221 229 237 232 245 259 257 251 245 240 238 239 229 221 232 244 264 260 244 233 236 224 227 239 280 300 289 304 308 303 285 277 297
264 218 211 140 61 35 18 21 26 352 356 360 2 218 214 220 199 204 223 224 227 248 262 260 249 249 242 238 233 220 229 242 257 265 246 241 245 243 235 248 252 261 309 316 316 301 300 305 323
268 270 243 235 40 6 3 9 16 352 343 1 4 161 210 194 204 192 215 223 220 227 246 254 260 253 242 240 243 241 244 252 257 258 248 243 245 241 240 240 242 244 272 294 304 300 316 300 290
253 251 229 244 256 330 341 8 28 12 328 2 1 148 187 182 141 159 180 202 211 210 226 237 250 257 251 247 242 247 250 255 257 257 260 247 239 236 243 248 250 249 252 264 283 283 266 267 275
240 227 223 243 250 293 325 28 17 17 37 52 57 71 93 102 112 122 145 188 211 212 212 231 245 250 259 264 255 253 257 252 255 257 258 259 251 245 242 247 251 252 255 253 259 269 271 265 267
259 227 224 230 227 271 296 328 11 12 25 64 79 85 106 109 115 108 156 213 213 220 221 223 241 253 261 270 270 266 264 264 267 271 262 257 254 252 249 247 248 247 250 254 257 258 264 267 264